Retour au catalogue

STARLINK-32150

ActifCommunicationsVLEO
NORAD 60294·PAYLOAD·🇺🇸 United States

Lancé Jul 28, 2024 depuis Cape Canaveral Space Force Station

Loading…

Prochains Passages (prochaines 24 heures)

TLE

FraisSource: CelesTrak SupGP

Époque: Sep 14, 2026, 21:19 UTC

1 60294C 24132S   26257.88868056  .00052257  00000+0  16805-2 0  2573
2 60294  53.1581 252.6130 0001395  92.6812 202.8705 15.31674224    11

Suivez STARLINK-32150 en temps réel avec AllMySat

Download on the App Store